Hourly Data Report for November 02, 2005

TORONTO CITY
ONTARIO

43°40'00.000" N
79°24'00.000" W
112.50 m
6158355
71508
XTO

Download Data

Hourly Data (November 2005)
Hourly Data Report for November 2, 2005
TIME
LST
Temp Definition
°C
Dew Point Definition
°C
Rel Hum Definition
%
Precip. Amount Definition
mm

Wind Dir Definition
10's deg

Wind Spd Definition
km/h
Visibility Definition
km
Stn Press Definition
kPa
Hmdx Definition


Wind Chill Definition


Weather Definition


00:00 6.7 3.6 81   LegendMM LegendMM   99.99     LegendNANA
01:00 5.8 3.3 84   LegendMM LegendMM   100.04     LegendNANA
02:00 5.4 3.3 86   LegendMM LegendMM   100.06     LegendNANA
03:00 5.8 3.6 86   LegendMM LegendMM   100.08     LegendNANA
04:00 5.1 3.2 88   LegendMM LegendMM   100.14     LegendNANA
05:00 4.4 2.9 90   LegendMM LegendMM   100.19     LegendNANA
06:00 4.4 2.9 90   LegendMM LegendMM   100.27     LegendNANA
07:00 4.3 2.7 89   LegendMM LegendMM   100.31     LegendNANA
08:00 5.7 2.9 82   LegendMM LegendMM   100.43     LegendNANA
09:00 7.1 2.7 74   LegendMM LegendMM   100.49     LegendNANA
10:00 8.7 2.9 67   LegendMM LegendMM   100.55     LegendNANA
11:00 10.7 2.7 58   LegendMM LegendMM   100.62     LegendNANA
12:00 11.1 2.5 55   LegendMM LegendMM   100.58     LegendNANA
13:00 12.4 2.2 50   LegendMM LegendMM   100.53     LegendNANA
14:00 10.9 4.8 66   LegendMM LegendMM   100.49     LegendNANA
15:00 10.6 5.8 72   LegendMM LegendMM   100.50     LegendNANA
16:00 11.5 3.9 60   LegendMM LegendMM   100.46     LegendNANA
17:00 11.2 2.8 56   LegendMM LegendMM   100.47     LegendNANA
18:00 10.5 3.3 61   LegendMM LegendMM   100.49     LegendNANA
19:00 9.6 6.0 78   LegendMM LegendMM   100.47     LegendNANA
20:00 9.9 5.3 73   LegendMM LegendMM   100.48     LegendNANA
21:00 9.5 5.2 75   LegendMM LegendMM   100.42     LegendNANA
22:00 9.6 6.1 79   LegendMM LegendMM   100.32     LegendNANA
23:00 10.0 7.8 86   LegendMM LegendMM   100.18     LegendNANA

Notes on Data Quality.

Legend

  • E = Estimated
  • M = Missing
  • NA = Not Available*
  • [empty] = Indicates an unobserved value
Date modified: